Location: Dannhausen
(51.8650°N, 10.1026°E)
Time: 07:48:43
(UTC+00:00)

Cosmos 2360 Rocket - Visible Passes

Search period start: 11 August 2020 00:00
Search period end: 21 August 2020 00:00
Orbit: 832 x 846 km, 71.0° (Epoch: 11 August)

Date Brightness Start Highest point End Pass type
(mag) Time Alt. Az. Time Alt. Az. Time Alt. Az.
11 Aug 3.8 19:41:42 10° NNW 19:46:13 23° NE 19:50:42 10° E visible
11 Aug 2.2 21:25:22 10° NNW 21:31:05 83° ENE 21:33:38 35° SE visible
11 Aug 3.8 23:10:24 10° NW 23:14:24 20° W 23:15:23 19° WSW visible
12 Aug 3.9 19:25:57 10° NNW 19:30:25 23° NE 19:34:50 10° E visible
12 Aug 2.2 21:09:37 10° NNW 21:15:20 79° ENE 21:18:07 31° SE visible
12 Aug 3.8 22:54:33 10° NW 22:58:42 21° W 22:59:53 20° WSW visible
13 Aug 2.2 20:53:52 10° NNW 20:59:35 76° ENE 21:02:39 28° SE visible
13 Aug 3.7 22:38:43 10° NW 22:43:00 22° WSW 22:44:24 20° WSW visible
14 Aug 2.3 20:38:06 10° NNW 20:43:49 72° ENE 20:47:12 25° SE visible
14 Aug 3.7 22:22:53 10° NW 22:27:17 24° WSW 22:28:58 21° SW visible
15 Aug 2.3 20:22:22 10° NNW 20:28:04 69° ENE 20:31:48 22° SE visible
15 Aug 3.7 22:07:03 10° NW 22:11:35 25° WSW 22:13:33 21° SW visible
16 Aug 2.3 20:06:37 10° NNW 20:12:18 65° NE 20:16:25 19° SE visible
16 Aug 3.7 21:51:14 10° NW 21:55:52 26° WSW 21:58:11 20° SW visible
17 Aug 2.4 19:50:52 10° NNW 19:56:31 62° NE 20:01:04 16° SE visible
17 Aug 3.6 21:35:25 10° NW 21:40:10 28° WSW 21:42:50 19° SW visible
18 Aug 2.4 19:35:08 10° NNW 19:40:45 59° NE 19:45:46 13° SE visible
18 Aug 3.6 21:19:37 10° NW 21:24:27 30° WSW 21:27:32 18° SSW visible
19 Aug 2.5 19:19:23 10° NNW 19:25:00 56° NE 19:30:30 10° SE visible
19 Aug 3.6 21:03:49 10° NW 21:08:44 31° WSW 21:12:16 16° SSW visible
20 Aug 2.5 19:03:38 10° NNW 19:09:13 54° NE 19:14:45 10° SE visible
20 Aug 3.5 20:48:00 10° NW 20:53:01 33° WSW 20:57:03 14° SSW visible
